| time (UTC) | temp F | wind direction | speed MPH | gust MPH | rain 1hr in | rain 24hr in | rain mn in | humidity % | barometer mb |
| 20260831221956 | 79 | 55 | 5.0 | 5.0 | 0.00 | 0.00 | 0.00 | 62 | 1017.5 |
| 20260831214956 | 76 | 49 | 3.0 | 7.0 | 0.00 | 0.00 | 0.00 | 67 | 1017.5 |
| 20260831211955 | 74 | 62 | 3.0 | 5.0 | 0.00 | 0.00 | 0.00 | 68 | 1017.4 |
| 20260831204957 | 74 | 60 | 3.0 | 8.0 | 0.00 | 0.00 | 0.00 | 68 | 1017.2 |
| 20260831201955 | 74 | 56 | 3.0 | 6.0 | 0.00 | 0.00 | 0.00 | 68 | 1017.1 |
| 20260831194957 | 74 | 53 | 3.0 | 5.0 | 0.00 | 0.00 | 0.00 | 67 | 1017.2 |
| 20260831191956 | 74 | 47 | 3.0 | 5.0 | 0.00 | 0.00 | 0.00 | 67 | 1017.2 |
| 20260831184956 | 74 | 47 | 2.0 | 4.0 | 0.00 | 0.00 | 0.00 | 67 | 1017.2 |
| 20260831181957 | 74 | 39 | 1.0 | 0.0 | 0.00 | 0.00 | 0.00 | 67 | 1017.2 |
| 20260831174956 | 74 | 46 | 4.0 | 6.0 | 0.00 | 0.00 | 0.00 | 67 | 1017.4 |
| 20260831171956 | 74 | 42 | 2.0 | 3.0 | 0.00 | 0.00 | 0.00 | 67 | 1017.5 |
| 20260831164956 | 74 | 44 | 2.0 | 3.0 | 0.00 | 0.00 | 0.00 | 67 | 1017.4 |
| 20260831161955 | 75 | 48 | 2.0 | 4.0 | 0.00 | 0.00 | 0.00 | 67 | 1017.3 |
| 20260831154957 | 75 | 35 | 0.0 | 1.0 | 0.00 | 0.00 | 0.00 | 67 | 1017.5 |
| 20260831151956 | 75 | 11 | 0.0 | 1.0 | 0.00 | 0.00 | 0.00 | 66 | 1017.6 |
| 20260831144956 | 75 | 60 | 1.0 | 5.0 | 0.00 | 0.00 | 0.00 | 66 | 1017.5 |
| 20260831141956 | 75 | 46 | 0.0 | 1.0 | 0.00 | 0.00 | 0.00 | 66 | 1017.3 |
| 20260831134956 | 76 | 59 | 2.0 | 4.0 | 0.00 | 0.00 | 0.00 | 66 | 1017.3 |
| 20260831131957 | 76 | 86 | 1.0 | 1.0 | 0.00 | 0.00 | 0.00 | 65 | 1017.1 |
| 20260831124956 | 76 | 105 | 4.0 | 6.0 | 0.00 | 0.00 | 0.00 | 64 | 1017.1 |
| 20260831121957 | 76 | 81 | 2.0 | 2.0 | 0.00 | 0.00 | 0.00 | 62 | 1017.0 |
| 20260831114955 | 77 | 52 | 1.0 | 3.0 | 0.00 | 0.00 | 0.00 | 61 | 1017.0 |
| 20260831111957 | 77 | 101 | 1.0 | 2.0 | 0.00 | 0.00 | 0.00 | 61 | 1016.9 |
| 20260831104957 | 77 | 58 | 3.0 | 7.0 | 0.00 | 0.00 | 0.00 | 62 | 1016.6 |
| 20260831101956 | 78 | 73 | 5.0 | 9.0 | 0.00 | 0.00 | 0.00 | 63 | 1016.1 |
| 20260831094956 | 78 | 93 | 4.0 | 9.0 | 0.00 | 0.00 | 0.00 | 62 | 1015.5 |
| 20260831091956 | 79 | 92 | 5.0 | 7.0 | 0.00 | 0.00 | 0.00 | 62 | 1015.1 |
| 20260831084957 | 79 | 109 | 2.0 | 3.0 | 0.00 | 0.00 | 0.00 | 61 | 1014.8 |
| 20260831081956 | 80 | 88 | 3.0 | 6.0 | 0.00 | 0.00 | 0.00 | 60 | 1014.7 |
| 20260831074956 | 80 | 93 | 4.0 | 7.0 | 0.00 | 0.00 | 0.00 | 60 | 1014.5 |
| 20260831071956 | 80 | 87 | 3.0 | 6.0 | 0.00 | 0.00 | 0.00 | 59 | 1014.2 |
| 20260831064955 | 81 | 98 | 3.0 | 7.0 | 0.00 | 0.00 | 0.00 | 59 | 1014.1 |
| 20260831061955 | 81 | 129 | 3.0 | 4.0 | 0.00 | 0.00 | 0.00 | 59 | 1014.0 |
| 20260831054956 | 82 | 90 | 4.0 | 6.0 | 0.00 | 0.00 | 0.00 | 59 | 1013.9 |
| 20260831051957 | 81 | 68 | 2.0 | 2.0 | 0.00 | 0.00 | 0.00 | 59 | 1014.0 |
| 20260831044955 | 81 | 75 | 3.0 | 6.0 | 0.00 | 0.00 | 0.00 | 61 | 1014.2 |
| 20260831041957 | 80 | 118 | 4.0 | 6.0 | 0.00 | 0.00 | 0.00 | 61 | 1014.3 |
| 20260831034957 | 81 | 73 | 3.0 | 7.0 | 0.00 | 0.00 | 0.00 | 59 | 1014.3 |
| 20260831031957 | 80 | 60 | 2.0 | 3.0 | 0.00 | 0.00 | 0.00 | 61 | 1014.4 |
| 20260831024956 | 78 | 39 | 3.0 | 5.0 | 0.00 | 0.00 | 0.00 | 63 | 1014.6 |
| 20260831021956 | 78 | 56 | 3.0 | 8.0 | 0.00 | 0.00 | 0.00 | 63 | 1014.6 |
| 20260831014957 | 78 | 47 | 2.0 | 5.0 | 0.00 | 0.00 | 0.00 | 62 | 1014.5 |
| 20260831011957 | 79 | 32 | 0.0 | 4.0 | 0.00 | 0.00 | 0.00 | 61 | 1014.4 |
| 20260831004956 | 77 | 21 | 2.0 | 2.0 | 0.00 | 0.00 | 0.00 | 64 | 1014.3 |
| 20260831001956 | 77 | 43 | 3.0 | 3.0 | 0.00 | 0.00 | 0.00 | 65 | 1014.1 |
| 20260830234957 | 77 | 31 | 2.0 | 4.0 | 0.00 | 0.00 | 0.00 | 64 | 1014.0 |
| 20260830231957 | 78 | 33 | 2.0 | 4.0 | 0.00 | 0.00 | 0.00 | 64 | 1013.9 |
| 20260830224956 | 77 | 20 | 1.0 | 2.0 | 0.00 | 0.00 | 0.00 | 65 | 1013.7 |